Weather History for Sedalia, MO

Change the Weather History Date:

Wednesday, September 18, 2013

  Actual Average Record
Temperature  
Mean Temperature 78 °F 68 °F  
Max Temperature 87 °F 78 °F 95 °F (1953)
Min Temperature 68 °F 58 °F 36 °F (1981)
Degree Days  
Heating Degree Days 0 1  
Month to date heating degree days 4 8  
Since 1 July heating degree days 4 9  
Cooling Degree Days 13 4  
Month to date cooling degree days 181 125  
Year to date cooling degree days 1396 1410  
Growing Degree Days 26 (Base 50)    
Moisture  
Dew Point 68 °F    
Average Humidity 76    
Maximum Humidity 93    
Minimum Humidity 59    
Precipitation  
Precipitation 0.02 in 0.13 in 4.70 in (1986)
Month to date precipitation 2.41 2.63  
Year to date precipitation 32.32 30.57  
Sea Level Pressure  
Sea Level Pressure 29.96 in    
Wind  
Wind Speed 12 mph (South)    
Max Wind Speed 21 mph    
Max Gust Speed 29 mph    
Visibility 8 miles    
Events Rain    
T = Trace of Precipitation, MM = Missing Value Source: NWS Daily Summary

Daily Weather History Graph

Daily Weather History Graph

Search for Another Location

Airport:

Trip Planner

Search our weather history database for the weather conditions in past years. The results will help you decide how hot, cold, wet, or windy it might be!

Date:

Astronomy

Sep. 18, 2013 Rise Set
Actual Time 6:57 AM CDT 7:15 PM CDT
Civil Twilight 6:30 AM CDT 7:42 PM CDT
Nautical Twilight 5:59 AM CDT 8:13 PM CDT
Astronomical Twilight 5:27 AM CDT 8:45 PM CDT
Moon 6:39 PM CDT (9/18) 6:00 AM CDT (9/18)
Length of Visible Light 13h 11m
Length of Day
12h 18m
Waxing Gibbous, 99% of the Moon is Illuminated
Sep 18
Waxing Gibbous
Sep 19
Full
Sep 26
Last Quarter
Oct 4
New
Oct 11
First Quarter

Hourly Weather History & Observations

Time (CDT) Temp. Heat Index Dew Point Humidity Pressure Visibility Wind Dir Wind Speed Gust Speed Precip Events Conditions
12:53 AM 68.0 °F - 66.9 °F 96% 30.01 in 5.0 mi SE 4.6 mph - 0.01 in   Clear
1:53 AM 68.0 °F - 66.9 °F 96% 30.01 in 4.0 mi SE 6.9 mph - N/A   Clear
2:53 AM 68.0 °F - 66.0 °F 93% 30.00 in 4.0 mi SSE 6.9 mph - N/A   Partly Cloudy
3:53 AM 68.0 °F - 66.0 °F 93% 29.99 in 5.0 mi South 6.9 mph - N/A   Partly Cloudy
4:53 AM 69.1 °F - 66.0 °F 90% 29.98 in 6.0 mi South 9.2 mph - N/A   Clear
5:53 AM 69.1 °F - 66.0 °F 90% 29.98 in 7.0 mi South 10.4 mph - N/A   Clear
6:53 AM 69.1 °F - 66.0 °F 90% 29.99 in 8.0 mi South 9.2 mph - N/A   Mostly Cloudy
7:53 AM 70.0 °F - 66.0 °F 87% 30.00 in 7.0 mi South 8.1 mph - N/A   Mostly Cloudy
8:53 AM 72.0 °F - 66.9 °F 84% 30.00 in 9.0 mi South 10.4 mph - 0.02 in Rain Light Rain
9:53 AM 73.0 °F - 66.9 °F 81% 30.00 in 9.0 mi South 9.2 mph - 0.00 in   Mostly Cloudy
10:53 AM 77.0 °F - 69.1 °F 76% 30.00 in 10.0 mi SSW 10.4 mph - N/A   Overcast
11:53 AM 81.0 °F 84.1 °F 69.1 °F 67% 29.99 in 10.0 mi SW 12.7 mph 20.7 mph N/A   Mostly Cloudy
12:53 PM 84.0 °F 89.0 °F 71.1 °F 65% 29.97 in 10.0 mi South 16.1 mph 21.9 mph 0.00 in   Clear
1:53 PM 84.0 °F 89.0 °F 71.1 °F 65% 29.96 in 10.0 mi SSW 13.8 mph 21.9 mph N/A   Partly Cloudy
2:53 PM 84.0 °F 87.8 °F 69.1 °F 61% 29.94 in 10.0 mi South 13.8 mph 25.3 mph N/A   Partly Cloudy
3:53 PM 84.0 °F 87.0 °F 68.0 °F 58% 29.92 in 10.0 mi South 17.3 mph 24.2 mph N/A   Clear
4:53 PM 82.0 °F 85.5 °F 69.1 °F 65% 29.91 in 10.0 mi South 17.3 mph 24.2 mph N/A   Clear
5:53 PM 80.1 °F 82.9 °F 69.1 °F 69% 29.90 in 10.0 mi South 13.8 mph - N/A   Clear
6:53 PM 79.0 °F - 68.0 °F 69% 29.89 in 10.0 mi South 13.8 mph - N/A   Clear
7:53 PM 77.0 °F - 68.0 °F 74% 29.89 in 10.0 mi South 15.0 mph - N/A   Clear
8:53 PM 75.9 °F - 68.0 °F 76% 29.90 in 10.0 mi South 13.8 mph - N/A   Clear
9:53 PM 75.9 °F - 68.0 °F 76% 29.91 in 10.0 mi South 13.8 mph - N/A   Clear
10:53 PM 77.0 °F - 68.0 °F 74% 29.91 in 10.0 mi South 11.5 mph - N/A   Clear
11:53 PM 75.9 °F - 69.1 °F 79% 29.91 in 10.0 mi South 12.7 mph - N/A   Clear